Showing default

COSMOS 87, 1585

Orbit data source: Space-Track

COSMOS 87, 1585 is a payload satellite owned by OKB-10 (CIS) in LEO that was launched on Sat, 18 Sep 1965 UTC via a KOSMOS 65S3 launch vehicle from the Tyuratam Missile And Space Complex (TTMTR). Payload-class satellites include a variety of spacecraft equipped with specific instruments for various scientific and technological missions. These include communications satellites like Starlink; space stations such as the ISS; scientific satellites like the Hubble; Earth observation satellites from companies like Planet Labs, Umbra, and HawkEye 360; GPS; miniature CubeSats for education and research; and military/defense satellites.

Loading next visibility...
Identifier
1585, 1965-073B
Orbit
LEO
Country
Flag of CISCIS
Related business
Manufacturer
OKB-10
Mission
Spacecraft
Bus & Motor
STRELA-1 11F610, Unknown motor
Mass
50 kg wet, 50 kg dry
Launch date (UTC)
1965-09-18 (61 years ago)
Launch vehicle
KOSMOS 65S3
Launch site
Tyuratam Missile And Space Complex (TTMTR)
Object type
Payload
Rocket body
Debris
Shape & HBR
Unknown
Radar Cross Section
Medium (>0.1 m² and <1 m²)

Expand to show TLE details & history
Last TLE update: 15 hours ago

TLE from 15 hours ago
0 COSMOS 87
1  1585U 65073B   26130.99039721 -.00000102  00000-0 -43820-4 0  9998
2  1585  56.0642  23.7340 0203326 337.7015  34.0192 12.47462967761118
Epoch: 2026-05-10T23:46Z
TLE epoch observation values (Epoch: 2026-05-10T23:46:10.318Z)
Latitude
10.78398°
Longitude
165.73196°
Altitude
1,344.127 km
Speed
7.247 km/s
True Right ascension
02h 04m 14s
True Declination
10° 43' 33"
Sunlit
Object was in daylight at epoch
Visualization orbit readout
Latitude
Unknown
Longitude
Unknown
Altitude
Unknown
Speed
Unknown
Apparent Right ascension
Unknown
Apparent Declination
Unknown
Sunlit
N/A
Visualization observer readout
Local Sidereal Time
23:13:49
Azimuth
Unknown
Elevation
Unknown
Doppler factor
Unknown
Orbital elements
Apogee altitude
1,634.621 km
Perigee altitude
1,315.273 km
Semi-major axis
7,853.084 km
Eccentricity
0.02033
Inclination
56.0642°
RAAN
23.734°
Arg. of periapsis
337.7015°
True anomaly
35.35064°
Mean anomaly
34.0192°
Eccentric anomaly
34.6821°
Mean motion
3.11877 °/min
Orbital period
115.43 mins
BSTAR
-0.00004382
Loading maneuver chart data...
Computing Atmospheric mass density...
Loading historical data...
Loading historical data...
Loading historical data...
Loading historical data...
Loading historical data...
Loading historical data...
Loading historical data...

Documentation

Showing up to 5 results
|